This is the latest recevied weather packets stored in our database for station/object JH1CWL-13. If no packets are shown the sender has not sent any weather packets the latest 10 day(s).
| Time | Temp. | Humidity | Pressure | Rain* | Wind** | Luminosity | Snow |
|---|---|---|---|---|---|---|---|
| 1777454994 | 17.22° C | 74% | 1010.7 hPa | 0 mm | - | - | - |
| 1777453794 | 17.78° C | 73% | 1011.1 hPa | 0 mm | - | - | - |
| 1777452595 | 17.78° C | 72% | 1010.5 hPa | 0 mm | - | - | - |
| 1777451396 | 18.33° C | 72% | 1010.2 hPa | 0 mm | - | - | - |
| 1777450195 | 18.33° C | 72% | 1009.6 hPa | 0 mm | - | - | - |
| 1777448994 | 18.33° C | 72% | 1009.3 hPa | 0 mm | - | - | - |
| 1777447794 | 18.89° C | 70% | 1009.2 hPa | 0 mm | - | - | - |
| 1777446595 | 20° C | 71% | 1009 hPa | 0 mm | - | - | - |
| 1777445395 | 20.56° C | 71% | 1008.7 hPa | 0 mm | - | - | - |
| 1777444196 | 20.56° C | 68% | 1008.5 hPa | 0 mm | - | - | - |
| 1777442994 | 21.11° C | 70% | 1008.1 hPa | 0 mm | - | - | - |
| 1777441794 | 21.67° C | 70% | 1008.1 hPa | 0 mm | - | - | - |
| 1777440596 | 22.22° C | 68% | 1007.9 hPa | 0 mm | - | - | - |
| 1777439396 | 22.22° C | 68% | 1007.7 hPa | 0 mm | - | - | - |
| 1777438195 | 21.67° C | 71% | 1008.1 hPa | 0 mm | - | - | - |
| 1777436994 | 21.11° C | 73% | 1008.1 hPa | 0 mm | - | - | - |
| 1777435795 | 21.11° C | 73% | 1008.1 hPa | 0 mm | - | - | - |
| 1777434595 | 21.11° C | 75% | 1008.1 hPa | 0 mm | - | - | - |
| 1777433395 | 21.11° C | 73% | 1008.2 hPa | 0 mm | - | - | - |
| 1777432195 | 22.22° C | 71% | 1007.8 hPa | 0 mm | - | - | - |
| 1777430995 | 22.22° C | 69% | 1008.2 hPa | 0 mm | - | - | - |
| 1777429795 | 22.22° C | 70% | 1008.4 hPa | 0 mm | - | - | - |
| 1777428596 | 22.78° C | 69% | 1008.1 hPa | 0 mm | - | - | - |
| 1777427395 | 22.78° C | 68% | 1008.7 hPa | 0 mm | - | - | - |
| 1777426194 | 23.33° C | 65% | 1008.5 hPa | 0 mm | - | - | - |
* Rain latest hour (hover to see other rain measurements)
** Current wind speed in m/s (hover to see current wind gust speed)